TimeCDT,TemperatureF,Dew PointF,Humidity,Sea Level PressureIn,VisibilityMPH,Wind Direction,Wind SpeedMPH,Gust SpeedMPH,PrecipitationIn,Events,Conditions,WindDirDegrees,DateUTC
12:52 AM,37.0,28.0,70,30.14,10.0,Calm,Calm,-,N/A,,Clear,0,2012-10-11 05:52:00
1:52 AM,39.2,28.4,65,30.12,10.0,South,8.1,-,N/A,,Clear,190,2012-10-11 06:52:00
2:52 AM,42.1,30.0,62,30.12,10.0,SSW,9.2,-,N/A,,Clear,210,2012-10-11 07:52:00
3:52 AM,42.1,30.0,62,30.12,10.0,SSW,6.9,-,N/A,,Clear,210,2012-10-11 08:52:00
4:52 AM,43.0,30.9,62,30.12,10.0,SSW,10.4,-,N/A,,Clear,210,2012-10-11 09:52:00
5:52 AM,43.0,30.9,62,30.11,10.0,SSW,13.8,19.6,N/A,,Clear,210,2012-10-11 10:52:00
6:52 AM,43.0,30.0,60,30.12,10.0,SW,12.7,-,N/A,,Clear,220,2012-10-11 11:52:00
7:52 AM,44.1,30.9,60,30.12,10.0,SSW,12.7,20.7,N/A,,Clear,210,2012-10-11 12:52:00
8:52 AM,48.2,32.0,54,30.11,10.0,SW,13.8,21.9,N/A,,Clear,220,2012-10-11 13:52:00
9:52 AM,53.1,34.0,48,30.12,10.0,SW,15.0,20.7,N/A,,Clear,220,2012-10-11 14:52:00
10:52 AM,57.9,35.1,42,30.12,10.0,SW,18.4,25.3,N/A,,Clear,220,2012-10-11 15:52:00
11:52 AM,62.1,35.1,37,30.10,10.0,SW,16.1,23.0,N/A,,Clear,220,2012-10-11 16:52:00
12:52 PM,64.9,37.0,36,30.08,10.0,SW,13.8,24.2,N/A,,Clear,220,2012-10-11 17:52:00
1:52 PM,68.0,37.0,32,30.06,10.0,WSW,9.2,19.6,N/A,,Clear,240,2012-10-11 18:52:00
2:52 PM,69.8,37.4,31,30.04,10.0,West,16.1,20.7,N/A,,Clear,270,2012-10-11 19:52:00
3:52 PM,71.1,37.9,30,30.05,10.0,West,13.8,19.6,N/A,,Clear,260,2012-10-11 20:52:00
4:52 PM,69.1,39.0,33,30.04,10.0,WSW,9.2,-,N/A,,Clear,250,2012-10-11 21:52:00
5:52 PM,64.4,37.4,37,30.06,10.0,NNW,10.4,-,N/A,,Clear,340,2012-10-11 22:52:00
6:52 PM,60.1,35.1,39,30.11,10.0,North,9.2,-,N/A,,Scattered Clouds,360,2012-10-11 23:52:00
7:52 PM,55.4,37.4,51,30.16,10.0,North,12.7,19.6,N/A,,Mostly Cloudy,10,2012-10-12 00:52:00
8:52 PM,52.0,33.1,49,30.19,10.0,NNE,12.7,19.6,N/A,,Overcast,20,2012-10-12 01:52:00
9:52 PM,51.8,33.8,50,30.22,10.0,North,12.7,18.4,N/A,,Overcast,10,2012-10-12 02:52:00
10:52 PM,50.0,35.1,57,30.27,10.0,North,11.5,-,N/A,,Overcast,10,2012-10-12 03:52:00
11:52 PM,48.2,35.6,62,30.29,10.0,NNE,6.9,-,N/A,,Overcast,20,2012-10-12 04:52:00